Miscellaneous Local Product
Issued by NWS Hastings, NE

Home | Current Version | Previous Version | Graphics & Text | Print | Product List | Glossary On
Versions: 1 2 3 4 5 6 7 8 9 10 11 12 13 14 15 16 17 18 19 20 21 22 23 24 25 26 27 28 29 30 31 32 33 34 35 36 37 38 39 40 41 42 43 44 45 46 47 48 49 50
000
AXUS43 KGID 270902
MISGRI

GID CWA HOURLY WEATHER ROUNDUP
NATIONAL WEATHER SERVICE HASTINGS NE
400 AM CDT THU APR 27 2017

NOTE: "FAIR" INDICATES FEW OR NO CLOUDS BELOW 12,000 FEET WITH NO
SIGNIFICANT WEATHER AND/OR OBSTRUCTIONS TO VISIBILITY.

...SOUTH CENTRAL NEBRASKA...

CITY           SKY/WX    TMP DP  RH WIND       PRES   REMARKS
GRAND ISLAND   CLEAR     28  26  92 W7        29.69F WCI  21
HASTINGS       CLEAR     30  25  81 W5        29.71S WCI  25
KEARNEY        CLEAR     34  27  75 W7        29.71S WCI  28
ORD            CLEAR     28  24  85 NW6       29.67F WCI  22
YORK           PTCLDY    30  28  93 NW9       29.69S WCI  22
AURORA         CLEAR     32  28  86 NW10      29.68F WCI  23
LEXINGTON      CLEAR     30  27  90 W3        29.70F
HOLDREGE       CLEAR     30  27  89 CALM      29.70F
HEBRON         PTCLDY    28  26  89 CALM      29.71S

...NEBRASKA PANHANDLE...

CITY           SKY/WX    TMP DP  RH WIND       PRES   REMARKS
CHADRON        PTCLDY    30  27  88 NE3       29.65F
ALLIANCE       PTCLDY    30  28  92 SE8       29.62F WCI  22
SCOTTSBLUFF    CLOUDY    39  36  89 E9        29.60F WCI  33
SIDNEY         MOCLDY    37  35  92 S7        29.62F WCI  32

...WESTERN AND NORTH CENTRAL NEBRASKA...

CITY           SKY/WX    TMP DP  RH WIND       PRES   REMARKS
VALENTINE      CLEAR     23  19  85 W7        29.69F WCI  15
AINSWORTH      CLEAR     28  27  96 NW7       29.69S WCI  21
ONEILL         CLEAR     28  25  91 W6        29.69S WCI  21
BROKEN BOW     CLEAR     29  25  85 CALM      29.68F
IMPERIAL       PTCLDY    37  30  75 SE9       29.65F WCI  30
NORTH PLATTE   CLOUDY    36  32  85 CALM      29.70F
MCCOOK         CLEAR     32  28  85 NE5       29.69F WCI  27

...EASTERN NEBRASKA...

CITY           SKY/WX    TMP DP  RH WIND       PRES   REMARKS
NORFOLK        PTCLDY    32  27  81 W8        29.66F WCI  25
SO SIOUX CITY  MOCLDY    33  28  81 NW10      29.64F WCI  25
TEKAMAH        CLOUDY    36  27  69 NW14      29.66R WCI  27
COLUMBUS       CLEAR     34  27  75 W6        29.68S WCI  29
ALBION         PTCLDY    29  26  88 CALM      29.68F
OMAHA EPPLEY   CLOUDY    39  29  67 NW14      29.65S WCI  31
OFFUTT AFB     CLOUDY    40  30  69 NW14      29.64F WCI  32
MILLARD        CLOUDY    41  33  72 NW10      29.66R
LINCOLN        CLOUDY    38  31  76 W9        29.68F WCI  31
NEBRASKA CITY  CLOUDY    40  29  64 NW14      29.66S WCI  33
BEATRICE       CLEAR     35  30  83 W8        29.68S WCI  29
FALLS CITY     MOCLDY    39  32  76 W8        29.66R WCI  33

...NORTHERN KANSAS...

CITY           SKY/WX    TMP DP  RH WIND       PRES   REMARKS
GOODLAND       CLEAR     35  29  78 S5        29.64F WCI  31
HILL CITY      PTCLDY    30  28  92 CALM      29.71F
NORTON         SUNNY     28  25  86 CALM      29.70S
PHILLIPSBURG   CLEAR     28  28 100 NW3       29.72S
SMITH CENTER   CLEAR     27  25  93 N5        29.72F WCI  21
HAYS           CLEAR     30  27  88 N3        29.72S
RUSSELL        CLEAR     33  30  88 E6        29.70F WCI  28
CONCORDIA      CLEAR     33  30  88 W7        29.72S WCI  27
SALINA         CLEAR     36  31  82 NW6       29.74S WCI  31
TOPEKA         PTCLDY    44  35  70 NW8       29.70R



USA.gov is the U.S. government's official web portal to all federal, state and local government web resources and services.